Hourly Data Report for November 26, 2019

EUREKA CLIMATE
NUNAVUT
Current Station Operator: ECCC - MSC

79°59'21.000" N
85°56'02.000" W
10.00 m
2401199
71613
NEK

Download Data

Hourly Data (November 2019)
Hourly Data Report for November 26, 2019
TIME
LST
Temp Definition
°C
Dew Point Definition
°C
Rel Hum Definition
%
Precip. Amount Definition
mm

Wind Dir Definition
10's deg

Wind Spd Definition
km/h
Visibility Definition
km
Stn Press Definition
kPa
Hmdx Definition


Wind Chill Definition


Weather Definition


00:00 -30.4 -33.5 75 0.0 7 3   101.83   -34 LegendNANA
01:00 -31.6 -34.8 73 0.0 2 10   101.89   -41 LegendNANA
02:00 -30.5 -33.5 75 0.0 7 3   101.96   -34 LegendNANA
03:00 -31.4 -34.4 75 0.0 7 8   102.03   -40 LegendNANA
04:00 -31.7 -34.8 74 0.0 4 9   102.08   -41 LegendNANA
05:00 -31.0 -34.0 75 0.0 4 8   102.13   -39 LegendNANA
06:00 -31.6 -34.7 74 0.0 10 5   102.18   -37 LegendNANA
07:00 -32.1 -35.0 75 0.0 5 4   102.22   -37 LegendNANA
08:00 -31.8 -34.9 74 0.0 10 8   102.26   -40 LegendNANA
09:00 -32.7 -35.8 74 0.0 2 9   102.27   -42 LegendNANA
10:00 -32.7 -35.9 74 0.0 10 6   102.30   -40 LegendNANA
11:00 -32.8 -35.8 74 0.0 10 3   102.33   -36 LegendNANA
12:00 -33.2 -36.4 73 0.0 7 5   102.33   -39 LegendNANA
13:00 -33.1 -36.3 74 0.0 6 5   102.33   -39 LegendNANA
14:00 -33.7 -37.0 73 0.0 4 4   102.36   -39 LegendNANA
15:00 -33.2 -36.4 73 0.0 4 9   102.37   -42 LegendNANA
16:00 -33.5 -36.8 73 0.0 10 2   102.38   -36 LegendNANA
17:00 -33.2 -36.3 73 0.0 10 6   102.37   -40 LegendNANA
18:00 -33.5 -36.7 73 0.0 10 4   102.35   -38 LegendNANA
19:00 -33.5 -36.7 73 0.0 0 1   102.35   -35 LegendNANA
20:00 -33.1 -36.2 74 0.0 8 2   102.31   -36 LegendNANA
21:00 -33.1 -36.3 73 0.0 10 6   102.31   -40 LegendNANA
22:00 -33.3 -36.5 73 0.0 3 7   102.29   -41 LegendNANA
23:00 -33.3 -36.3 74 0.0 6 4   102.28   -38 LegendNANA

Notes on Data Quality.

Legend

  • E = Estimated
  • M = Missing
  • NA = Not Available*
  • [empty] = Indicates an unobserved value
Date modified: